Погода Озерная

Погода Озерная : погода сейчас, прогноз погоды и архив. Всё, что Вы хотите узнать о погоде Озерная!

Хотите узнать прогноз погоды Озерная? Тогда Вам сюда: Погода Озерная

Поиск расширенной информации на нашем сайте:

Другие новости

Новости СМИ2

Главная страница сайта

Новости сайта

03.07.2017

Напоминаем, что на нашем специализированном сайте Метеоцентр.Азия вы можете получить высокодетализированные автоматические прогнозы погоды по пунктам России, СНГ и мира в авиационном формате (включающие направление и скорость ветра, видимость, явления погоды, количество и форму облачности, нижнюю и верхнюю границу облачности).


Погода Озерная - сегодня

Время (UTC), дата Ветер
(°,м/с) 
Видим.   Явления Облачность Т
(°С)
Тd
(°С)
f(%) Тe
(°С)
Pmin
(гПа)
dP
(гПа)
Po
(мм)
O2
(г/м3)
Тmin Tmax R s Состояние
почвы
03 18.11.17 190 (Ю) 4000 м  слаб. ливневой снег  10/10 300 м кучево-дожд. 
[Cb cap]
+0.6 -0.5 92 -1  1017  0.7  760  306           
06 18.11.17 200 (Ю) 20000 м  {ливн. осадки}  3/3 1000 м 
[Sc]
+1.6 -4.2 65 +1  1019.1  2.1  762  306           
09 18.11.17 110 (В) 20000 м    ясно 
-2.9   1020.8  1.6  763      +2.7  0.0     
12 18.11.17 070 (В) 20000 м    ясно 
+0.1 -4.4 72 -2  1019.9  -0.8  762  308           
15 18.11.17 150 (ЮВ) 10-13{19}  10 км  слаб. ливневой снег  10/10 300 м кучево-дожд. 
[Cb cap]
+2.7 -4.1 61 -2  1017.9  -2  761  304           
18 18.11.17 140 (ЮВ) 14-17{25}  10 км  {ливн. осадки}  10/10 600 м кучево-дожд. 
[Cb calv]
+4.5 -5 50 1014.3  -3.5  758  301           
21 18.11.17 150 (ЮВ) 19-22{34}  10 км  слаб. ливневой дождь  10/10 300 м кучево-дожд. 
[Cb cap]
+4.4 +0.6 76 -1  1010  -4.3  755  299  -2.9    0.0     
00 19.11.17 130 (ЮВ) 26-36{39}  10 км  слаб. ливневой дождь  10/10 300 м кучево-дожд. 
[Cb cap]
+5.7 +1.4 74 1006.3  -3.7  752  297           
03 19.11.17 130 (ЮВ) 27-35{40}  4000 м  слаб. ливневой дождь  10/10 300 м кучево-дожд. 
[Cb cap]
+6.3 +2.4 76 +1  1002.7  -3.6  749  295           
06 19.11.17 130 (ЮВ) 25-35{46}  10 км  слаб. ливневой дождь  10/10 300 м кучево-дожд. 
[Cb cap]
+8 +3.5 73 +3  997.8  -4.8  746  291           
09 19.11.17 130 (ЮВ) 27-38{40}  10 км  слаб. ливневой дождь  9/9 300 м кучево-дожд. 
[Cb cap]
+7.5 +2.7 72 +2  990.7  -7.1  740  290    +8.3     
12 19.11.17 тихо () -35{43}  4000 м  слаб. ливневой дождь  10/10 300 м кучево-дожд. 
[Cb cap]
+8.9 +5.6 80 +9  988.6  -2.1  739  287           
15 19.11.17 210 (ЮЗ) 6{39}  10 км  слаб. ливневой снег  10/10 300 м кучево-дожд. 
[Cb cap]
+2.1 +0.4 88 -1  997.2  8.5  745  298           
18 19.11.17 220 (ЮЗ) 8-12{12}  10 км  {ливн. осадки}  9/9 600 м кучево-дожд. 
[Cb calv]
+2.4 -2.5 70 -1  1001.6  4.3  749  299           
21 19.11.17 220 (ЮЗ) 7-14{16}  20000 м  {ливн. осадки}  10/10 600 м кучево-дожд. 
[Cb calv]
+1.5 -3.8 68 -2  1003.9  2.3  750  301  +0.1    0.3  <0.5  равномерный
мокрый или
старый снег
100% 
00 20.11.17 270 (З) 8-10{15}  20000 м  в посл. час ливневой снег  9/9 600 м кучево-дожд. 
[Cb calv]
+0.2 -2.3 83 -4  1006.4  2.5  752  303  -0.5         
03 20.11.17 260 (З) 7-10{12}  20000 м  в посл. час ливневой снег  9/9 600 м кучево-дожд. 
[Cb calv]
+0.7 -4.1 70 -3  1007.3  0.9  753  303           
06 20.11.17 230 (ЮЗ) 1{12}  20000 м  {ливн. осадки}  10/10 600 м кучево-дожд. 
[Cb calv]
-1 -4.2 79 1007.9  0.6  753  305           
09 20.11.17 120 (ЮВ) 4{12}  20000 м    9/9 600 м кучево-дожд. 
[Cb calv]
-2.9 -5.3 83 -6  1008.8  0.8  754  308    +1.5  0.2     
12 20.11.17 160 (Ю) 4000 м  слаб. ливневой снег  10/10 300 м кучево-дожд. 
[Cb cap]
-0.9 -1.6 95 -2  1009.1  0.4  754  305           
15 20.11.17 180 (Ю) 4000 м  слаб. ливневой снег  10/10 300 м кучево-дожд. 
[Cb cap]
-1.2 -1.9 95 -2  1009.2  -0.1  754  305           
18 20.11.17 110 (В) 10 км  {ливн. осадки}  9/9 600 м кучево-дожд. 
[Cb calv]
-2.8 -3.4 96 -2  1010.3  1.2  755  308           
21 20.11.17 150 (ЮВ) 20000 м    9/9 600 м кучево-дожд. 
[Cb calv]
-0.8 -3.9 79 -3  1011.6  1.2  756  306  -3.5    равномерный
сухой снег
100% 
00 21.11.17 160 (Ю) 12-19{22}  20000 м  метель{ливн. осадки}  8/8 600 м кучево-дожд. 
[Cb calv]
+0.8 -2.1 81 -4  1011.1  -0.5  756  304           
03 21.11.17 180 (Ю) 9-16{19}  20000 м  метель{ливн. осадки}  9/6 600 м верхняя 
[Sc|Ci fib]
+1.5 -4.1 66 -3  1010.4  -0.7  755  303           
Время (UTC), дата Ветер
(°,м/с) 
Видим.   Явления Облачность Т
(°С)
Тd
(°С)
f(%) Тe
(°С)
Pmin
(гПа)
dP
(гПа)
Po
(мм)
O2
(г/м3)
Тmin Tmax R s Состояние
почвы

Для получения пояснительной информации подведите курсор к названию столбца.

ПОГОДА Озерная - архив

Всё, что Вы хотите узнать о погоде Озерная - удобно и подробно!

Выберите нужную дату (начиная с 1 января 2015* года) и нажмите кнопку "Найти".
Будут отображены архивные сводки погоды по пункту Озерная, начиная с указанной даты.


Отображать данные в формате CSV (для использования в таблицах Excel)


Внимание! Наш архив погоды предназначен исключительно для личного некоммерческого использования в познавательных целях. Если Вам необходимы официальные справки о состоянии погоды (для производственных, юридических, коммерческих и т.п. целей), обращайтесь в органы Росгидромета.

*Примечание: данная дата относится к архиву по метеостанциям СССР (Россия, СНГ, Балтия).
Архив по метеостанциям Зарубежной Европы и Азии (кроме Китая) хранится 10 дней, по другим регионам земного шара (Китай, Африка, Америка, Австралия, Океания) - 1 день.

Озерная - район местоположения метеостанции


Название, широта, долгота, высота метеостанции:
Озерная 51.5°ш. 156.5°д. 28 м над ур. моря [Российская Федерация]

Дополнительная информация

В oтличие oт бoльшинства пoгoдных сайтoв мы публикуем пoдрoбную метеoинфoрмацию в детальнoм прoфессиoнальнoм фoрмате.

Характеристики температуры и влажнoсти вoздуха измеряются на высoте 2 м в тени вдали oт зданий и деревьев.
Скoрoсть ветра измеряется на высoте 10 м (на урoвне рoста челoвека скoрoсть ветра ниже в 1.5-2 раза). Если метеoстанция нахoдится в гoрoде или в лесу, тo скoрoсть ветра занижена на 2-4 м/с пo сравнению с oткрытым местoм. Скoрoсть ветра над акватoриями крупных рек и oзёр, а также на вершинах хoлмoв на 2-5 м/с выше, чем в oбычных услoвиях.
Атмoсфернoе давление в разных тoчках местнoсти мoжет значительнo oтличаться oт давления на метеoстанции, в зависимoсти oт услoвий рельефа (при пoдъёме на 10 м давление пoнижается примернo на 1 мм рт.ст.).